Location: Bacharowice
(49.9333°N, 19.5833°E)
Time: 08:31:40
(UTC+00:00)

Cosmos 2344 - Pass Details

Date: 29 September 2021
Orbit: 1235 x 3007 km, 63.3° (Epoch: 19 October)

Event Time Altitude Azimuth Distance (km) Brightness Sun altitude
Rises 22:58:59 0° 316° (NW) 4,587 6.9 -42.5°
Reaches altitude 10° 23:01:45 10° 310° (NW) 3,756 6.3 -42.4°
Enters shadow 23:06:18 32° 290° (WNW) 2,679 5.2 -42.3°
